Weather History for Seattle Boeing, WA

Change the Weather History Date:

Saturday, November 2, 2013

  Actual Average Record
Temperature  
Mean Temperature 52 °F -  
Max Temperature 57 °F 55 °F 72 °F (1970)
Min Temperature 46 °F 43 °F 25 °F (2002)
Degree Days  
Heating Degree Days 14    
Growing Degree Days 2 (Base 50)    
Moisture  
Dew Point 43 °F    
Average Humidity 72    
Maximum Humidity 89    
Minimum Humidity 57    
Precipitation  
Precipitation 0.38 in - - ()
Sea Level Pressure  
Sea Level Pressure 29.72 in    
Wind  
Wind Speed 11 mph (South)    
Max Wind Speed 28 mph    
Max Gust Speed 43 mph    
Visibility 9 miles    
Events Rain    
Averages and records for this station are not official NWS values.
T = Trace of Precipitation, MM = Missing Value Source: NWS Daily Summary

Daily Weather History Graph

Daily Weather History Graph

Search for Another Location

Airport:

Trip Planner

Search our weather history database for the weather conditions in past years. The results will help you decide how hot, cold, wet, or windy it might be!

Date:

Astronomy

Nov. 02, 2013 Rise Set
Actual Time 7:55 AM PDT 5:49 PM PDT
Civil Twilight 7:22 AM PDT 6:22 PM PDT
Nautical Twilight 6:46 AM PDT 6:58 PM PDT
Astronomical Twilight 6:10 AM PDT 7:34 PM PDT
Moon 6:55 AM PDT (11/2) 5:25 PM PDT (11/2)
Length of Visible Light 10h 59m
Length of Day
9h 54m
Waning Crescent, 1% of the Moon is Illuminated
Nov 2
Waning Crescent
Nov 3
New
Nov 9
First Quarter
Nov 17
Full
Nov 25
Last Quarter

Hourly Weather History & Observations

Time (PDT) Temp. Dew Point Humidity Pressure Visibility Wind Dir Wind Speed Gust Speed Precip Events Conditions
12:53 AM 55.0 °F 48.9 °F 80% 29.82 in 9.0 mi SSE 9.2 mph - 0.02 in Rain Light Rain
1:53 AM 54.0 °F 50.0 °F 86% 29.78 in 7.0 mi SSE 5.8 mph - 0.11 in Rain Light Rain
2:06 AM 53.6 °F 50.0 °F 88% 29.78 in 10.0 mi SSE 4.6 mph - 0.00 in Rain Light Rain
2:53 AM 54.0 °F 50.0 °F 86% 29.73 in 10.0 mi SE 10.4 mph - 0.05 in Rain Light Rain
3:53 AM 53.1 °F 50.0 °F 89% 29.68 in 6.0 mi SSE 4.6 mph - 0.09 in Rain Light Rain
4:02 AM 53.6 °F 50.0 °F 88% 29.68 in 6.0 mi SSE 6.9 mph - 0.01 in Rain Light Rain
4:53 AM 53.1 °F 50.0 °F 89% 29.65 in 7.0 mi SE 8.1 mph - 0.05 in Rain Light Rain
5:53 AM 53.1 °F 50.0 °F 89% 29.57 in 10.0 mi ESE 9.2 mph - 0.03 in   Overcast
6:53 AM 54.0 °F 50.0 °F 86% 29.53 in 10.0 mi SSE 13.8 mph - 0.00 in   Overcast
7:53 AM 55.9 °F 48.0 °F 75% 29.51 in 10.0 mi South 21.9 mph 33.4 mph 0.01 in Rain Light Rain
8:53 AM 53.1 °F 45.0 °F 74% 29.55 in 10.0 mi South 18.4 mph 34.5 mph 0.02 in   Mostly Cloudy
9:53 AM 52.0 °F 43.0 °F 71% 29.57 in 10.0 mi South 19.6 mph 35.7 mph N/A   Overcast
10:53 AM 52.0 °F 41.0 °F 66% 29.57 in 10.0 mi South 27.6 mph 40.3 mph N/A   Overcast
11:53 AM 52.0 °F 41.0 °F 66% 29.60 in 10.0 mi South 18.4 mph 41.4 mph N/A   Overcast
12:53 PM 53.1 °F 41.0 °F 64% 29.62 in 10.0 mi SSW 18.4 mph 42.6 mph N/A   Overcast
1:53 PM 53.1 °F 39.9 °F 61% 29.68 in 10.0 mi SSW 18.4 mph 32.2 mph N/A   Overcast
2:53 PM 53.1 °F 39.0 °F 59% 29.73 in 10.0 mi SSW 16.1 mph 29.9 mph N/A   Overcast
3:53 PM 53.1 °F 37.9 °F 57% 29.76 in 10.0 mi SSW 12.7 mph 29.9 mph N/A   Mostly Cloudy
4:53 PM 52.0 °F 37.9 °F 59% 29.78 in 10.0 mi SW 16.1 mph 25.3 mph N/A   Mostly Cloudy
5:53 PM 51.1 °F 37.0 °F 59% 29.79 in 10.0 mi SW 12.7 mph 24.2 mph N/A   Clear
6:53 PM 50.0 °F 36.0 °F 59% 29.81 in 10.0 mi SW 13.8 mph 23.0 mph N/A   Clear
7:53 PM 50.0 °F 37.0 °F 61% 29.85 in 10.0 mi Calm Calm - N/A   Mostly Cloudy
8:53 PM 50.0 °F 37.9 °F 63% 29.86 in 10.0 mi SW 4.6 mph - N/A   Mostly Cloudy
9:53 PM 48.9 °F 37.0 °F 64% 29.88 in 10.0 mi SSW 3.5 mph - N/A   Overcast
10:02 PM 48.2 °F 37.4 °F 66% 29.88 in 10.0 mi SW 3.5 mph - N/A   Mostly Cloudy
10:53 PM 48.9 °F 37.9 °F 66% 29.89 in 10.0 mi SSE 8.1 mph - N/A   Overcast
11:53 PM 46.9 °F 37.9 °F 71% 29.89 in 10.0 mi South 5.8 mph - N/A   Scattered Clouds